Tracking 35275 objects as of 8-Sep-2026
HD Live streaming from Space Station
objects crossing your sky now

STARLINK-34081

Track STARLINK-34081 now!
10-day predictions
STARLINK-34081 is classified as:


NORAD ID: 64044
Int'l Code: 2025-102Y
Launch date: May 16, 2025
Source: United States (US)
Launch site: AIR FORCE WESTERN TEST RANGE (AFWTR)
Your satellite tracking list
Your tracking list is empty




NASA's NSSDC Master Catalog

Two Line Element Set (TLE):
1 64044U 25102Y   26251.48561970  .00027885  00000-0  97049-3 0  9996
2 64044  69.9979  12.7429 0003126 258.0763 102.0061 15.29592938 73291
Source of the keplerian elements: AFSPC